Find Starlink 32665

NORAD ID: 62203 Int'l Des: 2024-229 Owner: SPXS Country: US Constellation: starlink operational
LEOCIRCULAR

現在のビュー

3D地球を読み込み中...

Starlink 32665について

説明を読み込み中...

次回通過

Passes for default location (London). Set your location on the main map for personalized predictions.

高度履歴

Loading altitude history...

軌道要素

1 62203U 24229M 26145.59979429 .00013879 00000-0 51239-3 0 9995
2 62203 43.0003 196.3791 0001447 244.2602 115.8100 15.27613113 82328
Epoch: May 25, 2026 • Age: 9 hours

現在のステータス

高度 493.5 km
速度 7.62 km/s
衛星直下点 -38.79°S, 159.98°W
打ち上げ日 Dec 4, 2024
運用期間 1.4 years
タイプ internet

技術仕様

分類 Payload
質量 730.00 kg
乾燥質量 700.00 kg
総質量 730.00 kg
長さ 0.30 m
直径 4.10 m
スパン 29.00 m
形状 Box + pan
製造者 SPXS
バスタイプ Starlink V2M
フェーズステータス In Orbit
所有者/国 SPXS/US

Most Searched